Location: Unspecified
(0.0000°N, 0.0000°E)
Time: 11:55:07
(UTC+00:00)

RS-15 - Visible Passes

Search period start: 22 May 2019 00:00
Search period end: 01 June 2019 00:00
Orbit: 1899 x 2145 km, 64.8° (Epoch: 21 May)

Date Brightness Start Highest point End Pass type
(mag) Time Alt. Az. Time Alt. Az. Time Alt. Az.
22 May 9.3 19:32:25 10° SW 19:43:14 40° WNW 19:53:42 10° N visible
23 May 10.0 05:03:07 10° NNE 05:12:16 30° ENE 05:21:38 10° SE visible
23 May 8.8 18:55:36 10° SW 19:07:16 56° WNW 19:18:30 10° N visible
24 May 10.4 04:29:00 10° NNE 04:36:15 20° ENE 04:43:36 10° ESE visible
24 May 8.4 18:19:13 10° SSW 18:31:20 77° WNW 18:42:55 10° NNE visible
25 May 10.7 03:57:04 10° NE 04:00:08 11° ENE 04:03:12 10° E visible
25 May 10.4 20:00:59 10° WSW 20:07:25 16° WNW 20:13:47 10° NNW visible
26 May 8.6 05:25:23 10° N 05:36:17 66° ENE 05:47:38 10° SSE visible
26 May 10.1 19:22:16 10° WSW 19:31:21 25° WNW 19:40:15 10° NNW visible
27 May 9.1 04:49:58 10° N 05:00:21 46° ENE 05:11:04 10° SE visible
27 May 9.6 18:44:43 10° SW 18:55:21 37° WNW 19:05:40 10° N visible
28 May 9.6 04:15:02 10° N 04:24:23 32° ENE 04:33:59 10° SE visible
28 May 9.1 18:07:49 10° SW 18:19:23 53° WNW 18:30:32 10° N visible
29 May 10.1 03:40:46 10° NNE 03:48:23 21° ENE 03:56:06 10° ESE visible
30 May 10.4 03:08:12 10° NE 03:12:16 12° ENE 03:16:23 10° E visible
30 May 8.0 05:13:15 10° NNW 05:24:19 86° WSW 05:35:55 10° SSE visible
30 May 10.8 19:13:44 10° W 19:19:34 15° WNW 19:25:21 10° NW visible
31 May 8.3 04:37:26 10° NNW 04:48:23 69° ENE 04:59:48 10° SSE visible
31 May 10.5 18:34:42 10° WSW 18:43:29 24° WNW 18:52:04 10° NNW visible
